RUK45VZ EGPH-EGSS

Flight info

Callsign RUK45VZ
Flight time N/A
Altitude 33000
Route GOSAM P600 FENIK L612 NAVSO DCT AKOMU DCT VAMEB UL612 LISTO
Aircraft B738/M-SDE3FGILRWY/SB1

Departure

Time N/A
Airport Edinburgh Airport (EGPH)

Arrival

Time 2026-04-30 18:00
Airport London Stansted Airport (EGSS)
Time Latitude Longitude Altitude Speed Heading
2026-04-30 17:39 52.25435 -1.29624 19535 ft 300 kts 150°
2026-04-30 17:41 52.10990 -1.15972 17056 ft 297 kts 150°
2026-04-30 17:42 52.07445 -1.12652 16446 ft 291 kts 150°
2026-04-30 17:42 52.02257 -1.07807 15554 ft 283 kts 149°
2026-04-30 17:43 51.99889 -1.02915 15064 ft 281 kts 111°
2026-04-30 17:44 51.99590 -0.93256 14538 ft 292 kts 93°
2026-04-30 17:44 51.99638 -0.83345 13960 ft 292 kts 94°
2026-04-30 17:46 51.99723 -0.67078 12513 ft 287 kts 91°
2026-04-30 17:47 52.00132 -0.54126 10480 ft 286 kts 91°
2026-04-30 17:48 51.99662 -0.41450 8293 ft 279 kts 98°
2026-04-30 17:48 51.99460 -0.33386 7492 ft 260 kts 95°
2026-04-30 17:49 51.99346 -0.21491 6511 ft 266 kts 95°
2026-04-30 17:50 51.99212 -0.10315 5996 ft 231 kts 96°
2026-04-30 17:51 51.98675 -0.02679 5788 ft 229 kts 128°
2026-04-30 17:52 51.94982 0.02072 4989 ft 228 kts 146°
2026-04-30 17:53 51.87650 0.03984 3564 ft 235 kts 195°
2026-04-30 17:54 51.81846 0.00575 3490 ft 216 kts 196°
2026-04-30 17:55 51.76769 0.01065 2963 ft 196 kts 111°
2026-04-30 17:56 51.78796 0.08568 2510 ft 182 kts 56°
2026-04-30 17:57 51.81525 0.12962 2052 ft 187 kts 50°
2026-04-30 17:58 51.84228 0.17076 1369 ft 160 kts 50°
2026-04-30 17:59 51.87205 0.21523 513 ft 139 kts 48°
2026-04-30 18:00 51.88849 0.24089 339 ft 27 kts 65°
2026-04-30 18:00 51.88920 0.24452 352 ft 0 kts 81°
2026-04-30 18:02 51.88910 0.24576 349 ft 10 kts 57°
2026-04-30 18:02 51.89159 0.24953 350 ft 18 kts 42°
2026-04-30 18:03 51.89180 0.25307 350 ft 11 kts 116°
2026-04-30 18:04 51.89040 0.25567 350 ft 10 kts 133°
2026-04-30 18:05 51.89028 0.25700 352 ft 0 kts 43°